Find STARLINK-37420

NORAD ID: 799500950 Int'l Des: 2026-132D Constellation: starlink operational

Current View

Loading 3D Globe...

About STARLINK-37420

STARLINK-37420 (NORAD 799500950) is a starlink constellation satellite launched Jun 8, 2026

About STARLINK-37420

Description loading...

Upcoming Passes

Passes for default location (London). Set your location on the main map for personalized predictions.

Altitude History

Loading altitude history...

Two-Line Element Set

1 99999C 2026132D 26163.59284721-.00024164 00000-0 -287270-5 0 1630
2 99999 53.1638 346.9900 0008554 278.0168 128.7709 16.07656002 16
Epoch: Jun 12, 2026 • Age: 8 hours